Hourly Weather Roundup
Issued by NWS Central Illinois

Home | Current Version | Previous Version | Text Only | Print | Product List | Glossary On
Versions: 1 2 3 4 5 6 7 8 9 10 11 12 13 14 15 16 17 18 19 20 21 22 23 24 25 26 27 28 29 30 31 32 33 34 35 36 37 38 39 40 41 42 43 44 45 46 47 48 49 50
000
NZUS43 KILX 291010
HWRILX

AREA WEATHER ROUNDUP
NATIONAL WEATHER SERVICE, LINCOLN IL
500 AM CDT FRI APR 29 2016


CITY           SKY/WX    TMP DP  RH WIND       PRES   REMARKS
BLOOMINGTON    CLEAR     48  48 100 W5        30.04S
CHAMPAIGN      CLEAR     47  45  93 CALM      30.02S
DANVILLE       FOG       46  46  99 CALM      30.00S VSB<1/4
DECATUR        CLEAR     50  46  86 W5        30.05R
EFFINGHAM      CLOUDY    49  49 100 CALM      30.06R
FLORA          CLOUDY    53  50  90 CALM      30.05R
GALESBURG      CLOUDY    47  46  97 N9        30.08R FOG
JACKSONVILLE   CLEAR     47  45  91 W7        30.07R
LACON          CLOUDY    47  45  93 N3        30.05S FOG
LAWRENCEVILLE  CLOUDY    53  50  89 W3        30.05R
LITCHFIELD     CLOUDY    49  47  90 W5        30.07R
$$


CITY           SKY/WX    TMP DP  RH WIND       PRES   REMARKS
LINCOLN        PTCLDY    52  49  90 CALM      30.04R
MACOMB         CLOUDY    49  48  97 NW8       30.08R
MATTOON        NOT AVBL
MT CARMEL AP   NOT AVBL
OLNEY-NOBLE AP CLOUDY    52  50  93 CALM      30.05S
PARIS          CLEAR     47  46  98 CALM      30.04S
PEORIA         CLOUDY    51  48  89 N5        30.05R
PONTIAC        CLOUDY    48  48  99 NW3       30.05R FOG
RANTOUL        CLEAR     49  48  97 CALM      30.02F
ROBINSON       CLOUDY    47  47  99 CALM      30.05S
SPRINGFIELD    MOCLDY    50  47  89 W6        30.06R
TAYLORVILLE    CLOUDY    46  46 100 CALM      30.06R
$$

...REGIONAL REPORTS...


CITY           SKY/WX    TMP DP  RH WIND       PRES   REMARKS
CHICAGO O`HARE CLOUDY    42  41  96 N10       30.02S
KANKAKEE       CLOUDY    46  43  88 CALM      30.04R FOG
MOLINE         CLOUDY    46  42  86 N6        30.09R FOG
MOUNT STERLING PTCLDY    47  45  94 NW8       30.07R
MOUNT VERNON   CLEAR     48  43  81 CALM      30.06R
PITTSFIELD     CLOUDY    50  47  89 NW6       30.08R
QUINCY         MOCLDY    49  46  90 NW8       30.07R
ROCKFORD       CLOUDY    42  39  89 N7        30.07S
$$


CITY           SKY/WX    TMP DP  RH WIND       PRES   REMARKS
BURLINGTON     CLOUDY    49  49 100 N12       30.07R FOG
CEDAR RAPIDS   CLOUDY    43  42  97 N3        30.10R
DES MOINES     CLOUDY    47  42  83 N6        30.10F
KIRKSVILLE     CLOUDY    47  43  86 NW5       30.10S
OTTUMWA        CLOUDY    47  46  97 N6        30.09S
ST LOUIS       CLOUDY    56  49  77 CALM      30.07S
$$


CITY           SKY/WX    TMP DP  RH WIND       PRES   REMARKS
TERRE HAUTE    CLOUDY    49  47  93 W3        30.03R
EVANSVILLE     CLOUDY    53  50  89 CALM      30.05R
INDIANAPOLIS   CLOUDY    49  46  90 W8        30.00R
LAFAYETTE      FOG       47  46  97 W3        30.02R VSB 1
MADISON        CLOUDY    39  37  92 N9        30.07S WCI  33
MILWAUKEE      CLOUDY    40  38  93 N5        30.05R
$$





USA.gov is the U.S. government's official web portal to all federal, state and local government web resources and services.